Theta_e
317 317 315 313 312 311 307 307 308 313 309 302 297 298 302 306 308 309 308 306 300 298 300 296 296 298 302 308 303 300 301 298 295 296 301 301 301 298 295 292 292 291 292 296
318 317 315 313 312 311 307 305 308 312 308 297 297 300 304 307 306 308 308 305 307 304 302 301 303 304 309 311 307 304 304 295 292 296 298 301 300 299 295 294 292 292 293 294
318 317 315 313 312 311 305 308 304 306 304 300 299 300 302 303 309 311 309 309 308 304 302 302 303 304 309 311 308 321 307 292 294 292 294 297 298 301 299 295 292 291 293 296
318 317 315 313 312 312 306 308 305 305 300 302 302 300 303 304 304 311 310 308 308 304 300 301 302 304 304 306 312 304 301 296 297 295 298 301 301 301 302 296 296 295 298 296
318 317 315 314 313 311 307 303 305 304 302 304 304 301 303 305 307 307 308 306 308 307 303 303 302 302 300 300 304 299 300 296 299 295 300 301 301 302 305 306 301 302 305 304
318 317 316 314 313 310 305 306 307 306 303 305 300 301 305 309 310 310 312 310 306 305 305 309 304 305 305 305 301 300 298 296 294 291 298 298 294 300 308 312 313 310 303 306
317 317 316 315 314 313 308 303 305 304 302 304 305 307 308 308 307 305 309 309 305 308 309 308 304 303 301 301 299 299 296 294 292 291 294 288 297 310 313 313 316 315 314 318
316 316 316 314 315 314 309 304 306 302 301 305 305 305 305 306 306 307 309 310 309 307 305 300 296 296 296 300 301 298 297 296 292 292 290 294 304 312 307 310 310 318 316 320
316 315 315 315 315 314 309 304 307 305 302 302 308 304 304 300 300 304 307 311 310 307 302 299 293 292 293 296 300 297 297 296 296 291 290 290 299 311 316 314 303 317 320 319
315 314 314 314 315 315 311 305 306 305 300 304 304 302 301 303 301 300 302 305 306 305 298 296 294 295 299 295 294 296 296 295 293 292 292 296 304 314 317 301 303 318 322 320
314 314 314 314 314 316 312 305 308 307 301 304 307 309 303 303 302 299 302 303 304 302 298 295 295 296 298 298 299 297 296 295 293 294 293 294 312 314 305 309 315 319 321 321
313 313 313 314 315 315 313 302 307 309 305 305 308 311 313 311 308 302 299 301 300 303 302 298 298 297 297 296 296 298 296 299 299 299 299 306 308 310 314 313 314 314 316 316
312 312 312 313 314 314 312 304 303 305 303 304 303 306 308 309 309 307 299 300 304 302 304 300 298 297 297 294 294 296 299 302 300 301 303 306 308 312 312 312 310 311 312 313
311 311 312 312 313 314 313 305 303 304 303 298 301 310 305 310 307 308 306 304 303 304 302 299 298 297 300 296 297 297 300 301 299 300 303 307 310 311 312 312 313 313 313 314
311 311 311 312 313 312 309 309 304 306 304 298 299 304 305 307 306 307 305 304 301 300 299 298 297 297 298 296 297 295 300 300 299 299 305 305 306 310 313 312 312 313 313 314
310 310 311 311 312 311 304 304 306 307 305 299 294 300 305 308 306 305 303 303 301 300 300 298 299 301 300 296 294 300 301 304 304 305 306 308 310 313 314 312 313 315 314 314
310 310 310 311 310 306 301 305 306 306 305 300 296 296 302 304 303 303 302 302 301 301 298 298 298 299 299 295 294 303 306 307 308 309 310 308 311 310 314 314 315 315 316 315
309 310 310 310 310 308 303 307 309 308 302 302 295 296 298 302 300 300 300 300 300 300 299 300 299 300 298 296 300 302 306 308 309 310 310 309 310 311 312 314 314 313 312 313
309 310 310 305 303 302 306 315 312 306 303 298 296 293 293 302 298 300 302 301 297 300 298 298 300 296 296 300 302 304 306 308 308 309 310 310 310 310 312 313 313 311 311 312
309 305 303 301 305 315 314 306 302 303 301 299 295 297 296 298 297 298 299 299 296 296 299 301 297 296 301 302 303 305 308 309 309 308 306 307 308 310 311 312 312 312 312 313
305 301 301 306 312 307 302 298 297 296 294 296 298 296 295 300 296 296 299 297 297 294 297 297 293 295 300 307 307 307 306 308 310 312 313 313 311 311 311 313 313 313 313 312
304 304 305 304 304 299 296 295 296 295 294 298 297 299 298 299 301 298 298 296 296 293 300 297 294 298 305 308 309 310 312 314 315 316 315 315 315 314 314 312 311 311 311 311
307 302 300 300 298 294 295 291 293 293 298 300 300 300 300 301 300 296 296 295 294 298 294 294 298 303 307 308 311 313 315 316 315 315 315 315 314 313 311 309 310 310 309 309
301 297 288 295 292 295 296 297 298 301 302 301 301 301 299 299 298 296 294 296 298 293 292 294 299 305 308 311 315 315 313 314 314 313 312 311 310 308 309 308 308 307 307 308
297 300 292 293 298 298 299 301 300 302 303 304 304 301 301 298 299 298 298 296 295 295 295 298 305 308 311 313 315 314 313 312 311 310 309 307 307 306 305 306 305 306 306 306
295 297 296 297 295 298 298 302 302 304 305 302 302 300 300 296 296 297 296 295 294 297 301 306 307 308 311 312 313 313 313 310 309 308 306 306 305 304 303 304 306 306 306 305
298 296 295 294 295 297 297 300 300 304 301 299 298 298 297 297 295 294 297 296 301 306 307 307 307 309 311 312 312 312 311 308 306 305 305 304 304 303 301 300 303 304 305 305
Wind_Speed
20 23 26 27 29 29 4 2 4 3 1 5 1 2 5 5 7 5 8 5 5 9 8 5 5 9 4 6 8 10 4 5 1 3 2 1 2 3 5 6 3 1 3 9
20 22 24 27 25 23 4 3 2 2 3 3 2 5 5 5 4 5 3 7 6 4 7 5 5 4 3 6 6 8 7 2 2 7 8 5 6 3 5 5 3 5 6 8
19 21 23 27 27 24 1 1 3 4 4 0 4 2 6 5 4 5 2 3 5 4 4 4 5 3 5 4 4 8 10 4 6 7 5 3 1 1 2 4 4 4 7 8
17 19 22 26 28 24 1 4 0 1 2 3 2 1 4 5 5 1 5 7 6 2 4 4 5 2 3 5 5 4 5 4 1 2 2 2 2 2 2 6 4 5 3 5
16 17 20 25 29 22 3 3 3 4 2 2 1 4 4 4 3 2 6 9 6 8 5 1 6 4 2 1 5 4 3 2 3 2 2 1 3 4 1 1 2 5 3 3
15 15 17 20 23 15 3 2 1 3 2 2 2 3 6 4 2 4 3 5 5 8 2 0 2 3 3 4 4 2 3 6 4 6 4 4 4 4 1 2 1 2 2 2
14 14 15 16 15 11 1 2 0 3 3 1 1 4 3 6 5 2 3 4 4 3 2 1 3 5 4 1 3 3 6 5 3 3 3 2 7 3 4 5 1 2 3 3
12 13 14 16 13 15 1 2 1 2 3 1 3 8 5 5 6 5 3 5 1 2 6 5 6 7 6 5 6 3 2 6 3 5 4 3 2 6 5 5 3 2 5 5
11 12 13 13 13 14 2 2 1 2 2 3 3 2 3 2 4 5 4 4 4 6 5 4 4 3 2 5 6 5 6 5 5 4 5 7 7 3 3 4 3 6 6 6
9 10 12 12 13 13 5 3 1 2 0 4 1 1 1 1 2 1 4 6 7 4 3 3 3 3 4 1 2 2 3 3 6 3 3 6 4 2 5 6 9 4 6 6
8 9 11 11 13 14 7 4 1 2 1 7 3 3 1 2 3 2 3 3 4 4 4 3 3 3 2 1 3 2 4 4 3 3 2 5 2 3 6 7 2 4 4 4
7 9 11 9 11 12 8 2 2 1 3 6 2 6 6 4 6 5 2 3 2 4 5 1 3 1 1 3 3 1 1 5 4 6 5 4 4 3 1 3 5 3 4 1
7 8 10 9 10 10 8 2 3 2 2 6 4 3 1 1 7 5 4 3 3 1 2 4 2 2 4 4 5 1 1 2 3 3 3 3 4 1 2 4 5 4 3 3
6 9 9 9 9 9 7 2 1 1 1 0 7 3 4 3 2 4 4 5 4 5 3 3 3 2 3 4 3 3 4 3 4 1 4 2 3 0 4 4 5 4 3 3
6 8 9 9 9 9 4 3 3 1 2 3 6 8 3 6 2 6 5 5 4 2 2 3 3 2 3 1 2 3 5 7 6 7 8 5 5 3 3 5 4 4 4 2
7 8 9 10 9 9 1 2 1 1 2 2 4 4 4 5 5 6 6 4 4 3 4 2 2 3 3 3 3 6 4 3 5 4 5 4 2 4 3 5 4 3 2 1
7 9 9 9 8 2 2 3 1 2 2 2 5 6 4 3 3 3 2 3 2 3 2 1 2 1 4 3 3 6 5 6 5 4 8 3 3 5 4 5 5 3 2 1
8 9 10 10 9 5 4 3 6 6 2 2 0 6 4 4 1 2 2 3 3 4 2 1 2 2 2 3 8 7 4 3 1 7 1 2 2 3 3 1 1 1 3 3
8 10 12 2 2 0 2 4 10 1 3 2 2 2 3 4 2 1 3 2 2 2 1 2 3 0 4 8 7 5 7 8 7 2 1 3 4 6 3 3 3 2 4 3
8 3 2 1 2 5 2 2 3 3 3 3 3 1 4 2 2 2 2 2 2 2 4 2 2 5 6 3 5 5 4 6 6 5 3 2 2 2 1 1 2 2 3 4
0 0 1 2 7 2 3 0 1 1 2 2 3 5 2 1 2 2 0 3 0 2 4 3 1 4 4 7 4 3 6 3 5 5 6 5 3 1 1 2 4 4 5 4
2 1 2 2 3 3 2 2 2 3 5 3 4 4 5 2 2 3 1 3 2 4 1 2 2 4 3 4 6 7 8 9 10 8 7 7 7 6 5 5 5 4 4 5
1 0 1 3 0 2 5 5 3 3 3 3 2 2 2 1 2 3 2 3 4 1 1 4 4 2 1 3 4 7 6 8 7 7 6 6 6 6 5 4 4 5 5 6
1 3 0 4 3 4 5 3 3 4 2 2 2 2 2 1 3 2 3 2 2 0 2 4 2 1 2 2 2 5 4 6 6 6 6 7 6 5 5 5 5 5 7 8
1 2 4 5 3 3 4 3 2 3 1 2 2 2 2 2 3 2 3 2 3 3 2 2 3 2 1 2 2 5 4 4 5 3 4 5 4 4 4 5 5 6 8 9
1 1 2 2 0 2 3 2 1 2 2 2 3 2 2 1 3 2 4 3 3 2 3 2 2 2 2 3 3 3 4 5 5 4 3 3 5 5 4 4 7 8 9 9
2 2 1 1 3 3 2 2 3 3 2 3 3 3 2 2 2 2 3 4 4 3 3 2 4 4 3 4 4 4 5 5 5 4 3 3 3 4 4 6 9 8 8 8
Wind_Direction
337 339 343 346 346 342 36 356 67 326 75 59 16 194 211 284 279 244 245 176 193 182 152 152 213 205 239 134 142 164 179 138 173 203 98 194 20 106 114 112 240 66 151 272
338 340 343 347 348 354 325 56 118 341 60 143 270 287 281 243 292 285 273 208 196 182 150 118 189 185 6 162 137 166 183 24 51 353 357 10 66 10 94 110 90 202 144 264
338 340 344 349 350 351 352 34 78 335 50 93 140 347 277 286 266 240 324 312 75 98 77 21 154 109 35 28 74 68 87 104 147 185 204 170 115 269 170 126 123 188 226 272
338 341 345 349 351 350 349 20 18 192 240 291 239 146 278 301 294 354 1 37 37 47 98 59 60 58 56 31 4 61 94 122 197 197 262 210 225 256 212 187 210 168 257 233
337 344 348 352 353 346 63 63 33 354 271 320 203 177 242 236 276 329 351 100 47 71 84 173 163 136 68 172 19 63 14 164 111 278 181 291 285 284 237 182 139 266 299 291
335 344 350 355 359 356 38 331 333 107 268 338 127 206 263 263 103 33 106 151 97 61 45 264 53 71 134 163 153 132 74 128 96 255 10 26 344 238 224 149 121 260 241 275
335 344 350 354 1 17 282 268 79 54 278 337 296 319 295 8 338 139 35 45 74 310 61 69 42 62 34 196 66 94 132 99 98 202 45 230 248 287 188 136 167 19 105 124
337 344 348 353 352 358 306 274 72 88 291 250 330 348 337 349 341 40 76 21 321 297 39 61 30 348 358 359 35 10 90 124 118 148 184 275 41 246 197 178 247 150 139 139
332 340 346 349 350 355 359 267 232 101 99 266 291 317 336 12 350 3 5 2 324 60 69 71 121 218 248 316 344 73 75 68 123 141 156 202 229 194 152 124 297 179 174 173
326 337 342 347 348 350 341 281 266 98 80 272 358 337 212 129 72 98 317 340 7 48 74 82 148 221 207 256 291 322 1 14 169 156 199 286 239 188 148 102 234 158 159 159
319 333 338 344 347 348 356 276 275 91 213 278 222 279 332 37 64 109 279 32 342 43 76 144 189 134 238 15 245 214 185 152 197 101 124 242 69 141 158 209 53 123 139 173
314 329 337 344 345 348 7 305 335 335 175 249 282 261 265 213 188 146 360 174 197 190 97 68 93 140 79 156 247 2 254 180 190 166 219 269 286 274 195 151 127 133 145 135
309 322 331 335 336 343 358 284 299 8 7 303 353 284 302 69 189 175 124 277 191 97 162 145 136 196 127 176 241 249 290 139 105 77 303 332 328 341 79 90 104 118 115 151
306 322 325 328 327 327 343 293 248 115 117 69 283 341 308 301 206 174 155 150 63 89 59 95 130 178 162 208 222 176 202 127 138 288 285 318 302 219 118 100 113 132 154 151
310 318 320 324 325 317 300 246 241 220 141 228 279 304 286 302 223 159 114 111 100 85 63 85 224 186 118 15 56 262 189 182 161 217 208 163 207 202 162 148 164 162 154 134
306 311 314 320 327 339 358 25 291 260 157 92 320 297 317 327 79 106 105 102 97 94 131 205 265 253 109 131 213 260 246 232 176 215 167 177 154 183 161 165 163 146 127 166
300 305 305 308 318 354 170 198 210 128 18 80 318 325 302 317 77 48 60 39 89 107 125 182 197 286 88 118 203 273 248 234 195 182 118 57 207 203 197 181 182 166 137 287
298 300 298 296 293 272 297 258 235 152 147 79 212 274 348 359 83 113 336 77 34 16 150 51 176 19 62 264 246 265 314 350 233 195 282 194 154 145 176 149 95 214 270 272
301 303 300 349 62 102 257 99 130 164 144 175 132 195 247 358 14 92 40 64 87 304 168 244 103 347 223 226 231 255 221 195 210 135 112 112 147 167 179 192 215 271 294 308
306 313 51 13 232 286 89 6 24 16 341 47 206 119 265 82 4 36 86 23 138 153 250 95 116 254 261 302 254 249 256 205 134 124 157 116 88 168 222 308 351 299 298 310
195 123 202 272 316 71 36 83 114 301 285 196 237 185 216 293 100 166 172 157 142 107 261 137 297 280 278 327 1 317 238 214 159 114 98 91 104 131 352 7 35 12 2 352
267 282 290 311 54 40 126 235 310 196 230 220 183 214 195 272 98 99 330 121 61 225 149 90 263 258 295 7 40 45 65 75 67 60 64 68 62 43 39 30 16 2 329 322
175 84 93 71 265 151 186 195 234 245 211 220 185 186 175 39 66 70 103 123 220 73 84 227 226 256 47 87 76 64 57 76 68 57 66 68 69 51 41 356 336 322 313 299
173 143 224 178 201 235 202 202 206 238 189 180 157 122 159 185 89 138 110 222 94 128 212 235 295 64 118 100 70 104 80 74 77 77 67 55 38 13 0 359 340 333 324 314
159 178 210 216 251 266 246 244 265 265 201 120 101 67 104 27 98 24 89 129 242 211 229 241 242 177 153 152 153 116 112 95 86 82 67 54 30 17 2 1 349 346 338 337
72 234 287 267 18 304 352 12 300 351 281 123 74 99 85 81 113 126 204 171 219 232 228 232 209 225 196 194 178 134 117 114 110 94 84 57 30 17 2 339 6 356 344 338
203 253 250 225 263 252 281 312 328 332 84 115 125 182 158 94 94 228 182 195 194 188 204 208 209 195 197 180 188 167 153 143 133 110 85 76 55 41 13 11 7 6 0 355